This demonstration page uses our WeatherBlox Daily Observations layout. Learn more.

Left ArrowRight Arrow

39.29038, -76.61219

Hourly Observations for July 23, 2020

Temp ( °F °C ) Dew Point ( °F °C ) Humidity (%) Winds ( mph kmh ) Pressure ( in mb ) Visibility ( mi km ) Precip ( " mm )
12:17 am 00:17 Mostly Cloudy 73 22.8 71 21.7 94 94 SSW 5 7 30.03 1017 10 16 0.00 0.00
12:32 am 00:32 Cloudy with Mist and Fog 73 22.8 71 21.7 94 94 SW 5 7 30.04 1017 1 2 0.00 0.00
12:45 am 00:45 Cloudy with Mist and Fog 73 22.8 71 21.7 94 94 SSW 3 6 30.03 1017 1 2 0.00 0.00
12:54 am 00:54 Cloudy with Mist and Fog 73 22.8 71 21.7 94 94 SW 5 7 30.04 1017 2 2 0.00 0.00
1:19 am 01:19 Cloudy with Mist and Fog 73 22.8 71 21.7 94 94 WSW 3 6 30.03 1017 3 4 0.00 0.00
1:54 am 01:54 Cloudy with Mist and Fog 74 23.3 71 21.7 91 91 SW 5 7 30.04 1017 3 5 0.00 0.00
2:54 am 02:54 Cloudy with Mist and Fog 74 23.3 72 22.2 94 94 Calm 30.03 1017 4 6 0.00 0.00
3:54 am 03:54 Mostly Cloudy with Mist and Fog 74 23.3 72 22.2 94 94 SW 5 7 30.04 1017 5 8 0.00 0.00
4:12 am 04:12 Mostly Cloudy with Mist and Fog 74 23.3 72 22.2 94 94 SSW 3 6 30.03 1017 6 10 0.00 0.00
4:54 am 04:54 Mostly Cloudy with Mist and Fog 74 23.3 72 22.2 94 94 Calm 30.02 1017 6 10 0.00 0.00
5:54 am 05:54 Mostly Cloudy with Mist and Fog 74 23.3 72 22.2 94 94 Calm 30.03 1017 6 10 0.00 0.00
6:54 am 06:54 Mostly Cloudy with Mist and Fog 75 23.9 72 22.2 90 90 Calm 30.05 1018 6 10 0.00 0.00
7:54 am 07:54 Mostly Cloudy 76 24.4 72 22.2 88 88 Calm 30.06 1018 10 16 0.00 0.00
8:54 am 08:54 Mostly Cloudy 79 26.1 73 22.8 82 82 SW 3 6 30.07 1018 10 16 0.00 0.00
9:54 am 09:54 Mostly Cloudy 81 27.2 73 22.8 77 77 VRB 3 6 30.06 1018 10 16 0.00 0.00
10:30 am 10:30 Mostly Cloudy 83 28.3 73 22.8 72 72 W 7 11 30.06 1018 10 16 0.00 0.00
10:54 am 10:54 Mostly Cloudy 84 28.9 73 22.8 70 70 WSW 7 11 30.07 1018 10 16 0.00 0.00
11:54 am 11:54 Mostly Cloudy 88 31.1 72 22.2 59 59 NW 9 15 30.06 1018 10 16 0.00 0.00
12:54 pm 12:54 Partly Cloudy 90 32.2 71 21.7 54 54 WSW 7 11 30.05 1018 10 16 0.00 0.00
1:54 pm 13:54 Mostly Cloudy 92 33.3 70 21.1 49 49 W 9 15 30.04 1017 10 16 0.00 0.00
2:54 pm 14:54 Mostly Cloudy 93 33.9 71 21.7 49 49 VRB 7 11 30.02 1017 10 16 0.00 0.00
3:54 pm 15:54 Mostly Cloudy 94 34.4 71 21.7 48 48 W 7 11 29.98 1015 10 16 0.00 0.00
4:54 pm 16:54 Partly Cloudy 94 34.4 71 21.7 48 48 W 6 9 29.98 1015 10 16 0.00 0.00
5:54 pm 17:54 Mostly Cloudy 93 33.9 70 21.1 47 47 SSE 8 13 29.99 1016 10 16 0.00 0.00
6:54 pm 18:54 Mostly Cloudy 90 32.2 68 20 48 48 S 8 13 29.99 1016 10 16 0.00 0.00
7:54 pm 19:54 Cloudy with Thunderstorms 88 31.1 73 22.8 61 61 SSW 6 9 30.00 1016 10 16 0.00 0.00
8:43 pm 20:43 Cloudy with Light Rain 82 27.8 75 23.9 79 79 WNW 3 6 29.99 1016 9 14 0.01 0.25
8:54 pm 20:54 Cloudy with Light Rain 82 27.8 76 24.4 82 82 WNW 9 15 30.00 1016 10 16 0.02 0.51
9:09 pm 21:09 Cloudy with Thunderstorms 80 26.7 75 23.9 85 85 WNW 5 7 30.00 1016 10 16 0.00 0.00
9:54 pm 21:54 Cloudy with Thunderstorms 79 26.1 75 23.9 88 88 SW 15 24 30.07 1018 10 16 0.00 0.00
10:49 pm 22:49 Cloudy 75 24 73 23 94 94 SW 6 9 30.04 1017 10 16 0.01 0.25
10:54 pm 22:54 Cloudy with Light Rain 76 24.4 73 22.8 91 91 SW 7 11 30.04 1017 10 16 0.01 0.25
11:54 pm 23:54 Cloudy 74 23.3 70 21.1 88 88 WSW 3 6 30.04 1017 10 16 0.00 0.00

Powered by AerisWeather